When you browse on this site, cookies collect data to enhance your experience and personalize the content and advertising you see.
Visit our Privacy Policy to learn more. By continuing to use the site, you agree to this use of cookies and data.
  • In United Kingdom
  • List of Countries
  • For 7 days
  • Water Temperature
  • Weather Map
  • Weather Widgets
  • user-avatar
    Login

    Hourly Weather Maseru

    Today, 7 June, Sunday

    Time Temperature Precipitation Wind Pressure Humidity
    00:00 +6°C° 0 mm 0 mps 638 mmHg 62%
    01:00 +5°C° 0 mm 0 mps 638 mmHg 63%
    02:00 +5°C° 0 mm 0 mps 637 mmHg 64%
    03:00 +4°C° 0 mm 0 mps 637 mmHg 65%
    04:00 +4°C° 0 mm 0 mps 637 mmHg 66%
    05:00 +5°C° 0 mm 1 mps 637 mmHg 66%
    06:00 +5°C° 0 mm 0 mps 638 mmHg 60%
    07:00 +6°C° 0 mm 0 mps 639 mmHg 54%
    08:00 +7°C° 0 mm 0 mps 640 mmHg 48%
    09:00 +10°C° 0 mm 0 mps 640 mmHg 40%
    10:00 +13°C° 0 mm 0 mps 641 mmHg 32%
    11:00 +18°C° 0 mm 1 mps 642 mmHg 24%
    12:00 +19°C° 0 mm 1 mps 641 mmHg 23%
    13:00 +19°C° 0 mm 1 mps 641 mmHg 21%
    14:00 +19°C° 0 mm 2 mps 640 mmHg 20%
    15:00 +17°C° 0 mm 2 mps 640 mmHg 23%
    16:00 +15°C° 0 mm 1 mps 639 mmHg 27%
    17:00 +14°C° 0 mm 1 mps 639 mmHg 30%
    18:00 +12°C° 0 mm 1 mps 638 mmHg 35%
    19:00 +10°C° 0 mm 1 mps 638 mmHg 40%
    20:00 +7°C° 0 mm 0 mps 637 mmHg 45%
    21:00 +7°C° 0 mm 0 mps 637 mmHg 50%
    22:00 +6°C° 0 mm 0 mps 637 mmHg 55%
    23:00 +6°C° 0 mm 0 mps 637 mmHg 60%

    Tomorrow, 8 June, Monday

    Time Temperature Precipitation Wind Pressure Humidity
    00:00 +5°C° 0 mm 0 mps 637 mmHg 61%
    01:00 +5°C° 0 mm 0 mps 636 mmHg 62%
    02:00 +5°C° 0 mm 0 mps 636 mmHg 64%
    03:00 +4°C° 0 mm 0 mps 636 mmHg 65%
    04:00 +4°C° 0 mm 0 mps 636 mmHg 66%
    05:00 +4°C° 0 mm 0 mps 636 mmHg 66%
    06:00 +5°C° 0 mm 0 mps 637 mmHg 60%
    07:00 +6°C° 0 mm 0 mps 637 mmHg 55%
    08:00 +7°C° 0 mm 0 mps 638 mmHg 49%
    09:00 +10°C° 0 mm 0 mps 639 mmHg 41%
    10:00 +13°C° 0 mm 0 mps 640 mmHg 33%
    11:00 +16°C° 0 mm 0 mps 641 mmHg 25%
    12:00 +19°C° 0 mm 1 mps 640 mmHg 23%
    13:00 +19°C° 0 mm 1 mps 640 mmHg 21%
    14:00 +19°C° 0 mm 2 mps 639 mmHg 19%
    15:00 +17°C° 0 mm 2 mps 639 mmHg 23%
    16:00 +15°C° 0 mm 1 mps 638 mmHg 26%
    17:00 +13°C° 0 mm 1 mps 638 mmHg 29%
    18:00 +12°C° 0 mm 1 mps 637 mmHg 34%
    19:00 +10°C° 0 mm 1 mps 636 mmHg 38%
    20:00 +7°C° 0 mm 0 mps 636 mmHg 43%
    21:00 +7°C° 0 mm 0 mps 636 mmHg 48%
    22:00 +6°C° 0 mm 0 mps 636 mmHg 53%
    23:00 +6°C° 0 mm 0 mps 636 mmHg 58%

    Day after tomorrow, 9 June, Tuesday

    Time Temperature Precipitation Wind Pressure Humidity
    00:00 +6°C° 0 mm 1 mps 636 mmHg 58%
    01:00 +6°C° 0 mm 1 mps 635 mmHg 58%
    02:00 +6°C° 0 mm 1 mps 635 mmHg 58%
    03:00 +5°C° 0 mm 1 mps 635 mmHg 59%
    04:00 +5°C° 0 mm 1 mps 635 mmHg 61%
    05:00 +5°C° 0 mm 1 mps 635 mmHg 62%
    06:00 +6°C° 0 mm 1 mps 636 mmHg 55%
    07:00 +7°C° 0 mm 1 mps 636 mmHg 48%
    08:00 +8°C° 0 mm 1 mps 637 mmHg 42%
    09:00 +10°C° 0 mm 2 mps 637 mmHg 35%
    10:00 +13°C° 0 mm 3 mps 638 mmHg 28%
    11:00 +17°C° 0 mm 4 mps 639 mmHg 21%
    12:00 +18°C° 0 mm 4 mps 638 mmHg 20%
    13:00 +19°C° 0 mm 5 mps 638 mmHg 19%
    14:00 +19°C° 0 mm 6 mps 637 mmHg 18%
    15:00 +17°C° 0 mm 5 mps 637 mmHg 22%
    16:00 +15°C° 0 mm 4 mps 636 mmHg 26%
    17:00 +14°C° 0 mm 3 mps 636 mmHg 30%
    18:00 +12°C° 0 mm 3 mps 635 mmHg 35%
    19:00 +10°C° 0 mm 2 mps 635 mmHg 39%
    20:00 +9°C° 0 mm 2 mps 635 mmHg 44%
    21:00 +8°C° 0 mm 2 mps 635 mmHg 45%
    22:00 +8°C° 0 mm 2 mps 635 mmHg 45%
    23:00 +8°C° 0 mm 2 mps 635 mmHg 46%

    10 June, Wednesday

    Time Temperature Precipitation Wind Pressure Humidity
    00:00 +7°C° 0 mm 2 mps 635 mmHg 46%
    01:00 +7°C° 0 mm 2 mps 634 mmHg 47%
    02:00 +6°C° 0 mm 2 mps 634 mmHg 48%
    03:00 +6°C° 0 mm 2 mps 634 mmHg 51%
    04:00 +6°C° 0 mm 2 mps 633 mmHg 53%
    05:00 +5°C° 0 mm 2 mps 633 mmHg 56%
    06:00 +6°C° 0 mm 2 mps 634 mmHg 55%
    07:00 +7°C° 0 mm 3 mps 634 mmHg 54%
    08:00 +8°C° 0 mm 3 mps 634 mmHg 53%
    09:00 +10°C° 0 mm 4 mps 635 mmHg 48%
    10:00 +13°C° 0 mm 6 mps 635 mmHg 42%
    11:00 +16°C° 0 mm 8 mps 635 mmHg 37%
    12:00 +17°C° 0 mm 8 mps 635 mmHg 34%
    13:00 +18°C° 0 mm 9 mps 634 mmHg 31%
    14:00 +21°C° 0 mm 10 mps 634 mmHg 28%
    15:00 +19°C° 0 mm 9 mps 633 mmHg 29%
    16:00 +18°C° 0 mm 7 mps 633 mmHg 31%
    17:00 +17°C° 0 mm 6 mps 632 mmHg 32%
    18:00 +16°C° 0 mm 6 mps 632 mmHg 34%
    19:00 +15°C° 0 mm 5 mps 632 mmHg 36%
    20:00 +14°C° 0 mm 5 mps 633 mmHg 38%
    21:00 +12°C° 0 mm 4 mps 632 mmHg 41%
    22:00 +10°C° 0 mm 4 mps 632 mmHg 43%
    23:00 +8°C° 0 mm 3 mps 632 mmHg 46%

    11 June, Thursday

    Time Temperature Precipitation Wind Pressure Humidity
    00:00 +8°C° 0 mm 3 mps 632 mmHg 54%
    01:00 +7°C° 0 mm 3 mps 632 mmHg 62%
    02:00 +5°C° 0 mm 3 mps 632 mmHg 71%
    03:00 +5°C° 0 mm 2 mps 632 mmHg 76%
    04:00 +4°C° 0 mm 2 mps 632 mmHg 81%
    05:00 +3°C° 0 mm 2 mps 632 mmHg 86%
    06:00 +3°C° 0 mm 2 mps 633 mmHg 85%
    07:00 +3°C° 0 mm 2 mps 633 mmHg 84%
    08:00 +3°C° 0 mm 2 mps 634 mmHg 83%
    09:00 +3°C° 0 mm 3 mps 634 mmHg 70%
    10:00 +5°C° 0 mm 4 mps 635 mmHg 57%
    11:00 +6°C° 0 mm 5 mps 635 mmHg 44%
    12:00 +7°C° 0 mm 5 mps 635 mmHg 43%
    13:00 +7°C° 0 mm 5 mps 635 mmHg 42%
    14:00 +7°C° 0 mm 5 mps 635 mmHg 40%
    15:00 +6°C° 0 mm 5 mps 635 mmHg 44%
    16:00 +5°C° 0 mm 4 mps 635 mmHg 48%
    17:00 +4°C° 0 mm 3 mps 634 mmHg 52%
    18:00 +4°C° 0 mm 2 mps 635 mmHg 59%
    19:00 +3°C° 0 mm 1 mps 635 mmHg 66%
    20:00 +1°C° 0 mm 1 mps 635 mmHg 73%
    21:00 0°C° 0 mm 0 mps 635 mmHg 75%
    22:00 -1°C° 0 mm 0 mps 635 mmHg 77%
    23:00 -1°C° 0 mm 0 mps 635 mmHg 79%

    12 June, Friday

    Time Temperature Precipitation Wind Pressure Humidity
    00:00 -1°C° 0 mm 0 mps 635 mmHg 80%
    01:00 -1°C° 0 mm 1 mps 635 mmHg 80%
    02:00 -1°C° 0 mm 1 mps 635 mmHg 80%
    03:00 -1°C° 0 mm 1 mps 635 mmHg 81%
    04:00 -2°C° 0 mm 1 mps 635 mmHg 83%
    05:00 -2°C° 0 mm 1 mps 635 mmHg 84%
    06:00 -1°C° 0 mm 1 mps 636 mmHg 79%
    07:00 0°C° 0 mm 1 mps 637 mmHg 74%
    08:00 +1°C° 0 mm 1 mps 638 mmHg 69%
    09:00 +3°C° 0 mm 2 mps 638 mmHg 58%
    10:00 +5°C° 0 mm 2 mps 639 mmHg 46%
    11:00 +7°C° 0 mm 3 mps 639 mmHg 35%
    12:00 +8°C° 0 mm 3 mps 639 mmHg 31%
    13:00 +9°C° 0 mm 3 mps 638 mmHg 27%
    14:00 +9°C° 0 mm 3 mps 638 mmHg 22%
    15:00 +8°C° 0 mm 3 mps 638 mmHg 25%
    16:00 +7°C° 0 mm 3 mps 638 mmHg 27%
    17:00 +5°C° 0 mm 3 mps 638 mmHg 29%
    18:00 +4°C° 0 mm 2 mps 638 mmHg 34%
    19:00 +3°C° 0 mm 2 mps 638 mmHg 40%
    20:00 +1°C° 0 mm 2 mps 639 mmHg 45%
    21:00 +1°C° 0 mm 1 mps 639 mmHg 50%
    22:00 0°C° 0 mm 1 mps 639 mmHg 55%
    23:00 0°C° 0 mm 1 mps 639 mmHg 60%
    Show more